Forside
METAR-TAF:

METAR-TAF

Lufthavne :

Delta County Airport

Escanaba, Michigan, USA

Breddekreds: 45-45N, længdekreds: 087-02W, højde: 180 m

Aktuelle vejr

Denne rapport blev lavet for 29 minutter siden, kl. 17:56 UTC
Vind 9 kt fra syd
Temperatur 3°C
Fugtighed 70%
Tryk 1006 hPa
Sigt: 16.1 km
skyfri

METAR: KESC 231756Z AUTO 19009KT 10SM CLR 03/M02 A2970 RMK AO2 SLP069 T00281017 10050 21028 56015

Tid: 13:25 (18:25 UTC)


TAF: fraværende

Vejrobservationer og prognoser fra mere end 4000 lufthavne (METAR og TAF).

De gule og røde prikker repræsenterer de meteorologiske stationer.

Flyt musen over at se navnet på stationen.

Så klik over at se vejr observationer og prognoser.

At skifte det kort: Klik på de grønne knapper med et sort kors for at zoome ind; på den grønne knap med en bindestreg for at zoome ud; eller på de grønne pile for tilstødende kort.


METAR-TAF: